SCP
-0 -0 -0 -0 -0 -0 -0 -0 -0 -0 -0 -0 -0 -0 -0 -0 0 -0 -0 -0 -0 -0 -0 -0 -0 -0 0 -0 -0 -0 -0 -0 -0 -0 0 -0 0 0 -0 -0 -0 0 0 0 0 0 0
-0 -0 -0 -0 -0 -0 -0 -0 -0 -0 -0 -0 -0 -0 -0 0 0 -0 -0 -0 -0 -0 -0 -0 -0 -0 -0 -0 -0 -0 -0 -0 -0 -0 -0 -0 -0 0 0 -0 -0 -0 0 -0 0 0 0
-0 -0 -0 -0 -0 -0 -0 -0 -0 -0 -0 -0 -0 -0 -0 0 -0 -0 -0 -0 -0 -0 -0 -0 -0 -0 -0 -0 -0 -0 0 0 0 -0 0 0 -0 -0 0 0 -0 -0 -0 -0 -0 0 0
-0 -0 -0 -0 -0 -0 -0 -0 -0 -0 -0 -0 -0 -0 -0 -0 -0 -0 -0 -0 -0 -0 -0 -0 0 0 -0 -0 0 -0 0 -0 -0 0 0 0 -0 -0 -0 -0 -0 0 0 0 0 0 0
-0 -0 -0 -0 -0 -0 -0 -0 -0 -0 -0 -0 -0 -0 -0 -0 -0 -0 -0 -0 -0 -0 -0 -0 -0 0 -0 -0 0 -0 -0 -0 -0 -0 -0 0 0 0 0 0 0 0 0 0 0 0 0
-0 -0 -0 -0 -0 -0 -0 -0 -0 -0 -0 -0 -0 -0 -0 0 -0 -0 -0 -0 -0 -0 0 -0 -0 0 -0 0 0 -0 -0 0 0 0 0 0 0 0 0 0 0 0 0 -0 -0 0 0
-0 -0 -0 -0 -0 -0 -0 -0 -0 -0 -0 -0 -0 -0 -0 -0 0 0 0 0 0 0 0 0 0 0 0 0 0 0 -0 0 0 0 0 0 0 0 0 0 0 0 0 -0 0 0 0
-0 -0 -0 -0 -0 -0 -0 -0 -0 -0 -0 -0 -0 -0 0 -0 -0 0 0 0 0 0 0 0 -0 -0 0 0 0 0 0 0 0 0 0 0 0 0 0 0 0 0 0 0 0 0 0
-0 -0 -0 -0 -0 -0 -0 -0 -0 -0 -0 -0 -0 -0 -0 0 0 0 0 0 0 0 0 -0 0 0 0 0 0 0 0 0 -0 0 0 0 0 0 0 0 0 0 0 0 0 0 0
-0 -0 -0 -0 -0 -0 -0 -0 -0 -0 -0 -0 -0 -0 -0 -0 0 0 0 0 0 0 0 -0 0 -0 0 0 0 0 0 0 0 0 0 0 0 0 0 0 0 0 0 0 0 0 0
-0 -0 -0 -0 -0 -0 -0 -0 -0 -0 -0 -0 -0 -0 -0 0 0 0 0 0 -0 0 0 -0 -0 0 0 0 0 0 0 0 0 0 0 0 0 0 0 0 0 0 0 0 0 0 0
-0 -0 -0 -0 -0 -0 -0 -0 -0 -0 -0 -0 -0 -0 -0 0 0 0 0 -0 0 0 0 -0 0 0 0 0 0 0 0 0 0 0 0 0 0 0 0 0 0 0 0 0 0 0 0
-0 -0 -0 -0 -0 -0 -0 -0 -0 -0 -0 -0 -0 -0 -0 0 -0 0 0 -0 0 0 -0 0 0 0 0 0 0 0 0 0 0 0 0 0 0 0 0 0 0 0 0 0 0 0 0
0 -0 -0 -0 -0 -0 -0 -0 -0 -0 -0 -0 -0 -0 -0 -0 0 0 0 0 0 0 0 0 0 0 0 0 0 0 0 0 0 0 0 0 0 0 0 0 0 0 0 0 0 0 0
0 0 -0 -0 -0 -0 -0 -0 -0 -0 -0 -0 -0 -0 -0 -0 -0 0 0 0 0 0 0 0 0 0 0 0 0 0 0 0 0 0 0 0 0 0 0 0 0 0 0 0 0 0 0
0 0 0 -0 -0 -0 -0 -0 -0 -0 -0 -0 0 -0 -0 -0 0 0 0 0 0 0 0 0 0 0 0 0 0 0 0 0 0 0 0 0 0 0 0 0 0 0 0 0 0 0 0
0 0 0 0 0 -0 -0 -0 -0 -0 -0 -0 0 0 -0 0 0 0 0 0 0 0 0 0 0 0 0 0 0 0 0 0 0 0 0 0 0 0 0 0 0 0 0 0 0 0 0
0 0 0 0 0 -0 -0 -0 -0 -0 -0 -0 0 0 -0 0 0 0 0 0 0 0 0 0 0 0 0 0 0 0 0 0 0 0 0 0 0 0 0 0 0 0 0 0 0 0 0
0 0 0 0 0 0 -0 -0 -0 -0 -0 0 0 0 0 0 0 0 0 0 0 0 0 0 0 0 0 0 0 0 0 0 0 0 0 0 0 0 0 0 0 0 0 0 0 0 0
0 0 0 0 0 0 -0 -0 -0 -0 0 0 0 0 0 0 0 0 0 0 0 0 0 0 0 0 0 0 0 0 0 0 0 0 0 0 0 0 0 0 0 0 0 0 0 0 0
0 0 0 0 0 0 0 -0 -0 -0 -0 0 0 0 0 0 0 0 0 0 0 0 0 0 0 0 0 0 0 0 0 0 0 0 0 0 0 0 0 0 0 0 0 0 0 0 0
0 0 0 0 0 0 0 0 -0 -0 -0 0 0 0 0 0 0 0 0 0 0 0 0 0 0 0 0 0 0 0 0 0 0 0 0 0 0 0 0 0 0 0 0 0 0 0 0
0 0 0 0 0 0 0 0 0 0 0 0 0 0 0 0 0 0 0 0 0 0 0 0 0 0 0 0 0 0 0 0 0 0 0 0 0 0 0 0 0 0 0 0 0 0 0
0 0 0 0 0 0 0 0 0 0 0 0 0 0 0 0 0 0 0 0 0 0 0 0 0 0 0 0 0 0 0 0 0 0 0 0 0 0 0 0 0 0 0 0 0 0 0
0 0 0 0 0 0 0 0 0 0 0 0 0 0 0 0 0 0 0 0 0 0 0 0 0 0 0 0 0 0 0 0 0 0 0 0 0 0 0 0 0 0 0 0 0 0 0
0 0 0 0 0 0 0 0 0 0 0 0 0 0 0 0 0 0 0 0 0 0 0 0 0 0 0 0 0 0 0 0 0 0 0 0 0 0 0 0 0 0 0 0 0 0 0
0 0 0 0 0 0 0 0 0 0 0 0 0 0 0 0 0 0 0 0 0 0 0 0 0 0 0 0 0 0 0 0 0 0 0 0 0 0 0 0 0 0 0 0 0 0 0
0 0 0 0 0 0 0 0 0 0 0 0 0 0 0 0 0 0 0 0 0 0 0 0 0 0 0 0 0 0 0 0 0 0 0 0 0 0 0 0 0 0 0 0 0 0 0
0 0 0 0 0 0 0 0 0 0 0 0 0 0 0 0 0 0 0 0 0 0 0 0 0 0 0 0 0 0 0 0 0 0 0 0 0 0 0 0 0 0 0 0 0 0 0
Wind_Speed_500mb
53 52 50 48 45 42 38 32 24 15 13 13 12 12 16 20 18 14 14 14 12 7 1 5 8 15 18 8 3 8 20 20 20 31 35 29 32 23 10 13 8 8 7 11 9 3 1
53 53 52 52 49 46 41 35 27 18 12 12 11 11 14 17 13 9 8 8 8 5 1 6 9 14 15 5 7 13 16 21 17 25 28 26 25 30 8 10 7 4 5 14 8 4 2
53 53 54 54 54 51 46 37 28 19 11 9 10 10 11 13 8 3 3 3 4 3 2 4 12 21 10 4 3 5 5 12 17 25 27 28 21 20 25 17 26 14 15 15 17 8 8
54 54 54 55 57 57 52 42 35 23 12 6 7 9 8 7 4 2 1 2 3 2 4 11 13 20 13 8 8 6 12 17 9 17 30 28 26 24 9 16 16 9 10 9 19 11 10
56 56 56 56 57 59 56 47 40 29 15 5 5 8 9 6 3 1 4 4 4 3 6 13 12 11 10 7 6 2 8 16 16 12 17 23 24 14 11 7 11 13 2 4 17 5 5
55 57 58 56 57 58 59 54 44 35 22 8 3 8 9 7 3 2 4 7 12 6 7 13 15 15 8 12 9 6 4 14 25 33 32 13 5 5 8 8 7 6 5 6 6 7 1
54 56 58 58 56 56 57 56 49 41 29 15 5 6 8 6 3 0 4 12 19 5 22 16 11 21 13 14 4 9 4 19 24 16 8 19 8 8 9 10 8 5 2 7 8 12 12
53 56 58 59 56 54 54 55 50 44 34 20 9 6 9 7 4 8 12 12 15 16 17 35 31 37 25 6 5 15 1 14 14 11 15 16 3 9 16 4 8 14 11 8 8 13 9
50 54 56 56 57 54 52 51 49 43 36 23 12 10 13 11 11 9 8 11 20 21 6 24 22 26 19 10 2 11 3 7 7 12 11 4 11 25 15 10 14 5 9 4 6 9 10
47 51 54 55 55 55 51 48 45 41 35 24 13 14 15 13 8 16 20 20 15 18 8 11 5 11 21 12 8 18 12 11 9 5 10 6 19 21 15 1 5 6 8 4 13 12 5
44 48 51 53 55 54 52 46 42 38 29 23 10 15 11 11 13 23 21 18 19 2 5 5 6 16 23 17 19 6 5 8 8 9 8 11 14 19 15 8 4 2 10 7 4 5 7
41 45 48 51 53 53 52 47 42 37 31 15 6 11 6 9 17 22 24 22 4 9 6 4 10 12 8 22 14 18 10 13 7 6 7 9 19 19 8 10 10 7 14 16 11 6 6
39 43 47 49 51 52 51 49 44 38 32 20 0 6 7 3 12 21 20 4 9 5 11 6 3 6 8 8 9 13 7 11 4 8 9 10 6 3 31 15 17 20 15 9 10 9 8
36 41 46 49 51 52 51 49 45 41 34 24 3 7 10 7 12 21 13 9 10 6 8 2 9 10 1 7 5 6 7 6 15 11 7 6 14 8 15 5 6 4 12 9 8 6 18
33 38 43 47 50 51 52 50 48 42 37 24 4 11 7 2 9 14 2 8 6 5 8 12 14 12 13 16 10 10 10 8 10 9 9 4 8 15 14 8 3 13 9 8 6 6 4
31 36 40 44 47 50 51 51 49 43 36 26 9 4 7 3 4 1 9 6 4 7 5 9 9 10 10 14 11 11 8 10 8 10 13 1 5 8 13 16 12 5 7 11 8 9 12
31 36 39 41 44 47 49 51 50 45 35 29 7 2 6 4 6 2 6 6 8 14 12 7 4 6 9 6 8 10 7 8 7 4 15 4 8 12 10 5 7 14 11 8 5 5 2
30 36 37 39 41 43 46 49 50 48 38 29 8 4 3 4 2 3 2 6 5 8 18 14 9 9 7 7 7 9 7 6 5 3 4 1 9 2 11 18 6 6 5 6 4 11 8
29 33 36 37 38 41 42 44 46 46 41 42 19 6 3 10 5 6 10 6 7 5 6 7 6 7 3 6 5 7 12 10 8 3 10 6 5 7 15 13 13 11 17 16 5 6 8
29 31 33 34 37 39 40 41 41 34 32 31 11 7 8 16 11 8 7 4 3 7 11 6 5 6 10 7 6 6 11 8 14 3 14 10 6 12 11 15 9 11 20 18 8 5 6
31 31 31 33 33 35 38 39 41 32 22 19 14 7 9 5 9 7 4 4 5 5 7 12 10 11 7 5 11 7 10 11 12 11 7 8 7 10 12 14 14 20 21 11 6 2 5
28 29 29 30 31 31 32 37 40 35 19 13 11 11 13 12 18 6 4 5 9 3 5 3 8 4 8 7 4 5 3 4 9 1 5 5 6 4 8 11 16 24 9 4 5 6 9
28 29 28 28 28 28 27 31 34 34 27 13 15 5 6 10 12 6 6 3 6 9 13 19 8 5 5 6 14 29 33 26 20 7 4 1 5 5 9 10 14 9 2 3 6 9 12
32 30 29 27 26 25 23 25 25 26 28 22 24 9 7 7 7 6 8 7 7 9 9 2 2 7 5 21 32 28 37 44 33 37 30 8 7 2 9 7 3 7 3 6 8 18 13
39 35 31 30 25 24 22 20 20 16 17 15 17 9 4 4 13 12 25 11 9 16 3 8 4 8 10 12 8 10 10 12 2 6 11 18 7 6 2 5 12 6 8 6 5 25 8
45 42 36 32 29 25 21 18 18 13 9 12 9 15 1 3 5 12 7 11 3 5 13 11 17 8 8 6 6 3 4 4 7 5 13 12 8 7 3 2 7 7 10 30 5 9 9
49 44 44 37 32 28 23 18 15 12 10 9 4 9 5 7 7 11 4 1 5 3 5 4 7 2 3 4 3 3 5 4 2 3 6 8 7 3 1 6 10 7 12 16 7 13 52
52 48 46 41 37 32 25 19 15 11 8 6 3 6 10 8 20 10 5 5 1 1 6 1 5 5 7 5 4 4 2 3 5 4 6 5 4 4 2 5 10 21 13 5 18 47 47
53 51 49 43 41 36 28 21 17 12 9 7 7 11 14 12 11 16 20 17 15 14 4 2 4 1 4 7 2 3 3 3 7 3 8 3 10 8 14 11 7 22 18 29 45 48 49
Wind_Direction_500mb
44 41 38 35 33 29 26 25 28 34 40 45 56 83 119 131 125 111 98 94 104 118 225 306 330 348 13 4 61 145 44 20 17 24 26 12 19 2 359 316 12 72 15 349 153 104 46
41 39 37 34 31 27 22 21 22 31 47 58 64 92 127 139 129 113 96 84 82 94 338 328 348 351 350 360 78 83 54 34 0 7 6 10 350 346 336 339 36 358 16 320 259 245 235
40 37 34 32 31 28 24 24 25 27 45 68 83 104 129 149 148 129 118 60 40 49 356 347 337 348 339 91 198 358 30 317 343 4 356 12 352 351 341 341 354 349 355 342 299 273 197
38 36 33 30 29 29 27 29 27 28 35 80 112 123 138 156 175 193 304 338 338 328 298 304 330 334 305 225 241 281 340 6 285 315 328 320 339 326 297 312 349 20 56 346 284 186 245
38 36 33 29 28 28 28 28 26 26 28 49 151 157 158 167 185 254 290 302 310 249 258 281 310 336 309 259 207 72 339 5 347 327 313 303 290 296 298 74 9 11 251 286 319 80 78
35 33 32 30 27 27 27 27 27 26 27 38 133 178 177 175 173 267 312 355 341 328 265 272 270 301 264 248 159 217 280 330 327 318 322 349 191 18 17 85 204 241 309 301 289 301 276
32 32 31 30 28 26 26 26 26 28 28 37 89 169 183 171 153 2 59 19 18 30 336 272 278 259 5 153 259 265 244 328 358 351 13 324 71 272 252 220 164 173 218 294 289 357 22
27 28 28 28 27 26 25 25 25 25 29 36 65 119 154 146 113 75 59 33 28 326 305 297 283 267 281 188 292 294 63 37 15 339 360 11 340 339 295 67 47 32 54 355 312 350 46
24 24 25 25 25 25 24 23 23 24 26 32 58 103 129 127 107 45 4 15 19 5 289 293 255 244 237 278 243 101 98 29 12 2 351 179 260 343 15 4 62 53 80 342 247 327 342
20 20 20 21 22 23 22 22 21 22 23 29 58 108 119 113 75 15 38 351 350 316 55 278 187 250 222 229 27 139 67 59 8 321 329 309 325 341 339 309 108 27 297 330 341 38 324
14 16 17 16 17 18 19 18 18 20 20 26 64 119 110 82 36 10 359 17 334 205 15 196 192 165 179 176 158 195 114 142 191 237 69 277 309 324 3 3 7 279 30 0 300 339 53
7 10 12 13 13 13 15 15 13 13 15 16 58 161 136 57 33 4 341 314 317 48 270 250 148 181 144 218 191 158 201 218 265 80 19 21 80 50 4 340 30 322 17 28 24 61 50
1 4 6 8 8 8 8 11 9 6 5 1 12 177 217 89 336 339 339 355 53 111 308 27 286 185 224 249 180 175 169 16 112 71 356 347 359 325 23 7 360 42 43 341 358 356 234
357 360 1 3 5 4 4 4 6 4 2 0 323 190 175 211 333 3 357 55 67 321 358 354 345 355 345 312 108 144 147 99 19 69 65 50 330 29 357 357 297 355 124 148 287 245 283
352 356 358 359 1 1 1 359 359 2 359 6 9 169 204 202 347 346 3 66 206 28 347 357 350 31 353 1 55 48 55 57 37 40 121 63 280 330 3 344 71 322 7 216 226 235 325
344 349 353 355 358 360 359 357 355 356 355 359 17 238 293 198 312 305 71 238 84 70 6 39 50 42 31 2 44 27 42 350 92 58 86 193 328 285 322 357 35 96 279 7 6 332 306
337 343 347 352 355 358 359 357 353 353 353 355 26 32 120 270 268 19 134 231 107 63 57 85 57 12 65 23 35 7 43 347 101 108 90 76 115 294 9 18 26 339 8 7 135 156 253
329 337 344 346 351 355 358 358 355 349 357 359 38 33 78 272 59 45 158 157 90 57 43 34 65 66 85 43 43 26 37 174 95 88 91 169 130 297 267 295 223 239 263 149 138 284 239
319 330 338 342 347 352 355 357 359 350 351 359 348 308 252 285 102 342 322 53 70 62 50 43 66 75 106 35 22 2 17 82 146 152 167 186 13 359 348 351 356 355 336 326 245 90 228
309 320 330 338 343 347 352 355 358 357 339 355 357 15 17 70 51 110 17 17 118 65 88 77 14 33 65 38 58 326 24 52 18 59 131 100 124 152 208 232 257 296 314 309 133 141 234
302 310 320 331 340 345 348 352 358 1 341 1 11 37 15 310 341 344 3 283 66 116 57 34 68 71 56 42 354 35 1 350 25 110 80 97 195 200 241 259 282 300 311 38 22 190 234
291 299 310 323 333 339 346 349 358 3 7 4 22 6 355 300 315 302 39 334 131 83 97 20 93 103 79 106 143 265 18 244 244 324 84 33 269 226 275 274 284 296 62 348 18 343 280
283 289 299 311 323 332 341 348 356 6 14 43 29 13 326 321 335 18 233 143 146 120 88 93 108 83 26 203 277 272 260 240 228 213 119 240 161 48 258 290 315 334 229 69 298 289 278
270 277 286 296 309 319 328 341 353 5 13 26 23 16 356 287 14 347 301 110 111 118 163 286 89 130 221 309 298 279 264 260 237 240 206 182 115 41 267 355 266 222 69 283 244 267 297
262 266 274 283 292 302 311 324 339 350 359 8 18 24 359 289 322 357 7 24 54 28 298 197 134 110 4 352 27 2 343 3 341 271 195 181 122 260 213 214 276 97 334 321 229 305 159
256 260 263 270 279 286 294 305 322 325 335 353 358 15 337 303 299 329 328 21 87 2 13 82 90 35 4 67 62 95 246 276 356 75 63 75 92 140 20 300 275 240 264 302 261 296 283
252 253 257 257 264 271 279 282 304 310 321 334 21 5 333 274 229 5 16 232 7 43 123 90 333 19 278 67 65 199 272 304 96 51 324 346 7 89 276 256 284 294 303 5 43 255 312
250 250 252 251 251 254 262 264 276 281 304 307 265 7 11 292 274 249 206 217 274 35 134 286 54 11 43 72 116 276 98 266 64 271 159 192 139 243 42 277 298 9 2 122 249 300 306
246 246 244 244 245 243 246 248 252 255 280 270 257 303 312 290 268 248 242 232 243 254 227 150 123 218 161 93 66 112 335 8 158 262 340 344 175 205 177 222 237 331 298 302 317 315 319
Wind_Speed_850mb
53 52 50 48 45 42 38 32 24 15 13 13 12 12 16 20 18 14 14 14 12 7 1 5 8 15 18 8 3 8 20 20 20 31 35 29 32 23 10 13 8 8 7 11 9 3 1
53 53 52 52 49 46 41 35 27 18 12 12 11 11 14 17 13 9 8 8 8 5 1 6 9 14 15 5 7 13 16 21 17 25 28 26 25 30 8 10 7 4 5 14 8 4 2
53 53 54 54 54 51 46 37 28 19 11 9 10 10 11 13 8 3 3 3 4 3 2 4 12 21 10 4 3 5 5 12 17 25 27 28 21 20 25 17 26 14 15 15 17 8 8
54 54 54 55 57 57 52 42 35 23 12 6 7 9 8 7 4 2 1 2 3 2 4 11 13 20 13 8 8 6 12 17 9 17 30 28 26 24 9 16 16 9 10 9 19 11 10
56 56 56 56 57 59 56 47 40 29 15 5 5 8 9 6 3 1 4 4 4 3 6 13 12 11 10 7 6 2 8 16 16 12 17 23 24 14 11 7 11 13 2 4 17 5 5
55 57 58 56 57 58 59 54 44 35 22 8 3 8 9 7 3 2 4 7 12 6 7 13 15 15 8 12 9 6 4 14 25 33 32 13 5 5 8 8 7 6 5 6 6 7 1
54 56 58 58 56 56 57 56 49 41 29 15 5 6 8 6 3 0 4 12 19 5 22 16 11 21 13 14 4 9 4 19 24 16 8 19 8 8 9 10 8 5 2 7 8 12 12
53 56 58 59 56 54 54 55 50 44 34 20 9 6 9 7 4 8 12 12 15 16 17 35 31 37 25 6 5 15 1 14 14 11 15 16 3 9 16 4 8 14 11 8 8 13 9
50 54 56 56 57 54 52 51 49 43 36 23 12 10 13 11 11 9 8 11 20 21 6 24 22 26 19 10 2 11 3 7 7 12 11 4 11 25 15 10 14 5 9 4 6 9 10
47 51 54 55 55 55 51 48 45 41 35 24 13 14 15 13 8 16 20 20 15 18 8 11 5 11 21 12 8 18 12 11 9 5 10 6 19 21 15 1 5 6 8 4 13 12 5
44 48 51 53 55 54 52 46 42 38 29 23 10 15 11 11 13 23 21 18 19 2 5 5 6 16 23 17 19 6 5 8 8 9 8 11 14 19 15 8 4 2 10 7 4 5 7
41 45 48 51 53 53 52 47 42 37 31 15 6 11 6 9 17 22 24 22 4 9 6 4 10 12 8 22 14 18 10 13 7 6 7 9 19 19 8 10 10 7 14 16 11 6 6
39 43 47 49 51 52 51 49 44 38 32 20 0 6 7 3 12 21 20 4 9 5 11 6 3 6 8 8 9 13 7 11 4 8 9 10 6 3 31 15 17 20 15 9 10 9 8
36 41 46 49 51 52 51 49 45 41 34 24 3 7 10 7 12 21 13 9 10 6 8 2 9 10 1 7 5 6 7 6 15 11 7 6 14 8 15 5 6 4 12 9 8 6 18
33 38 43 47 50 51 52 50 48 42 37 24 4 11 7 2 9 14 2 8 6 5 8 12 14 12 13 16 10 10 10 8 10 9 9 4 8 15 14 8 3 13 9 8 6 6 4
31 36 40 44 47 50 51 51 49 43 36 26 9 4 7 3 4 1 9 6 4 7 5 9 9 10 10 14 11 11 8 10 8 10 13 1 5 8 13 16 12 5 7 11 8 9 12
31 36 39 41 44 47 49 51 50 45 35 29 7 2 6 4 6 2 6 6 8 14 12 7 4 6 9 6 8 10 7 8 7 4 15 4 8 12 10 5 7 14 11 8 5 5 2
30 36 37 39 41 43 46 49 50 48 38 29 8 4 3 4 2 3 2 6 5 8 18 14 9 9 7 7 7 9 7 6 5 3 4 1 9 2 11 18 6 6 5 6 4 11 8
29 33 36 37 38 41 42 44 46 46 41 42 19 6 3 10 5 6 10 6 7 5 6 7 6 7 3 6 5 7 12 10 8 3 10 6 5 7 15 13 13 11 17 16 5 6 8
29 31 33 34 37 39 40 41 41 34 32 31 11 7 8 16 11 8 7 4 3 7 11 6 5 6 10 7 6 6 11 8 14 3 14 10 6 12 11 15 9 11 20 18 8 5 6
31 31 31 33 33 35 38 39 41 32 22 19 14 7 9 5 9 7 4 4 5 5 7 12 10 11 7 5 11 7 10 11 12 11 7 8 7 10 12 14 14 20 21 11 6 2 5
28 29 29 30 31 31 32 37 40 35 19 13 11 11 13 12 18 6 4 5 9 3 5 3 8 4 8 7 4 5 3 4 9 1 5 5 6 4 8 11 16 24 9 4 5 6 9
28 29 28 28 28 28 27 31 34 34 27 13 15 5 6 10 12 6 6 3 6 9 13 19 8 5 5 6 14 29 33 26 20 7 4 1 5 5 9 10 14 9 2 3 6 9 12
32 30 29 27 26 25 23 25 25 26 28 22 24 9 7 7 7 6 8 7 7 9 9 2 2 7 5 21 32 28 37 44 33 37 30 8 7 2 9 7 3 7 3 6 8 18 13
39 35 31 30 25 24 22 20 20 16 17 15 17 9 4 4 13 12 25 11 9 16 3 8 4 8 10 12 8 10 10 12 2 6 11 18 7 6 2 5 12 6 8 6 5 25 8
45 42 36 32 29 25 21 18 18 13 9 12 9 15 1 3 5 12 7 11 3 5 13 11 17 8 8 6 6 3 4 4 7 5 13 12 8 7 3 2 7 7 10 30 5 9 9
49 44 44 37 32 28 23 18 15 12 10 9 4 9 5 7 7 11 4 1 5 3 5 4 7 2 3 4 3 3 5 4 2 3 6 8 7 3 1 6 10 7 12 16 7 13 52
52 48 46 41 37 32 25 19 15 11 8 6 3 6 10 8 20 10 5 5 1 1 6 1 5 5 7 5 4 4 2 3 5 4 6 5 4 4 2 5 10 21 13 5 18 47 47
53 51 49 43 41 36 28 21 17 12 9 7 7 11 14 12 11 16 20 17 15 14 4 2 4 1 4 7 2 3 3 3 7 3 8 3 10 8 14 11 7 22 18 29 45 48 49
Wind_Direction_850mb
44 41 38 35 33 29 26 25 28 34 40 45 56 83 119 131 125 111 98 94 104 118 225 306 330 348 13 4 61 145 44 20 17 24 26 12 19 2 359 316 12 72 15 349 153 104 46
41 39 37 34 31 27 22 21 22 31 47 58 64 92 127 139 129 113 96 84 82 94 338 328 348 351 350 360 78 83 54 34 0 7 6 10 350 346 336 339 36 358 16 320 259 245 235
40 37 34 32 31 28 24 24 25 27 45 68 83 104 129 149 148 129 118 60 40 49 356 347 337 348 339 91 198 358 30 317 343 4 356 12 352 351 341 341 354 349 355 342 299 273 197
38 36 33 30 29 29 27 29 27 28 35 80 112 123 138 156 175 193 304 338 338 328 298 304 330 334 305 225 241 281 340 6 285 315 328 320 339 326 297 312 349 20 56 346 284 186 245
38 36 33 29 28 28 28 28 26 26 28 49 151 157 158 167 185 254 290 302 310 249 258 281 310 336 309 259 207 72 339 5 347 327 313 303 290 296 298 74 9 11 251 286 319 80 78
35 33 32 30 27 27 27 27 27 26 27 38 133 178 177 175 173 267 312 355 341 328 265 272 270 301 264 248 159 217 280 330 327 318 322 349 191 18 17 85 204 241 309 301 289 301 276
32 32 31 30 28 26 26 26 26 28 28 37 89 169 183 171 153 2 59 19 18 30 336 272 278 259 5 153 259 265 244 328 358 351 13 324 71 272 252 220 164 173 218 294 289 357 22
27 28 28 28 27 26 25 25 25 25 29 36 65 119 154 146 113 75 59 33 28 326 305 297 283 267 281 188 292 294 63 37 15 339 360 11 340 339 295 67 47 32 54 355 312 350 46
24 24 25 25 25 25 24 23 23 24 26 32 58 103 129 127 107 45 4 15 19 5 289 293 255 244 237 278 243 101 98 29 12 2 351 179 260 343 15 4 62 53 80 342 247 327 342
20 20 20 21 22 23 22 22 21 22 23 29 58 108 119 113 75 15 38 351 350 316 55 278 187 250 222 229 27 139 67 59 8 321 329 309 325 341 339 309 108 27 297 330 341 38 324
14 16 17 16 17 18 19 18 18 20 20 26 64 119 110 82 36 10 359 17 334 205 15 196 192 165 179 176 158 195 114 142 191 237 69 277 309 324 3 3 7 279 30 0 300 339 53
7 10 12 13 13 13 15 15 13 13 15 16 58 161 136 57 33 4 341 314 317 48 270 250 148 181 144 218 191 158 201 218 265 80 19 21 80 50 4 340 30 322 17 28 24 61 50
1 4 6 8 8 8 8 11 9 6 5 1 12 177 217 89 336 339 339 355 53 111 308 27 286 185 224 249 180 175 169 16 112 71 356 347 359 325 23 7 360 42 43 341 358 356 234
357 360 1 3 5 4 4 4 6 4 2 0 323 190 175 211 333 3 357 55 67 321 358 354 345 355 345 312 108 144 147 99 19 69 65 50 330 29 357 357 297 355 124 148 287 245 283
352 356 358 359 1 1 1 359 359 2 359 6 9 169 204 202 347 346 3 66 206 28 347 357 350 31 353 1 55 48 55 57 37 40 121 63 280 330 3 344 71 322 7 216 226 235 325
344 349 353 355 358 360 359 357 355 356 355 359 17 238 293 198 312 305 71 238 84 70 6 39 50 42 31 2 44 27 42 350 92 58 86 193 328 285 322 357 35 96 279 7 6 332 306
337 343 347 352 355 358 359 357 353 353 353 355 26 32 120 270 268 19 134 231 107 63 57 85 57 12 65 23 35 7 43 347 101 108 90 76 115 294 9 18 26 339 8 7 135 156 253
329 337 344 346 351 355 358 358 355 349 357 359 38 33 78 272 59 45 158 157 90 57 43 34 65 66 85 43 43 26 37 174 95 88 91 169 130 297 267 295 223 239 263 149 138 284 239
319 330 338 342 347 352 355 357 359 350 351 359 348 308 252 285 102 342 322 53 70 62 50 43 66 75 106 35 22 2 17 82 146 152 167 186 13 359 348 351 356 355 336 326 245 90 228
309 320 330 338 343 347 352 355 358 357 339 355 357 15 17 70 51 110 17 17 118 65 88 77 14 33 65 38 58 326 24 52 18 59 131 100 124 152 208 232 257 296 314 309 133 141 234
302 310 320 331 340 345 348 352 358 1 341 1 11 37 15 310 341 344 3 283 66 116 57 34 68 71 56 42 354 35 1 350 25 110 80 97 195 200 241 259 282 300 311 38 22 190 234
291 299 310 323 333 339 346 349 358 3 7 4 22 6 355 300 315 302 39 334 131 83 97 20 93 103 79 106 143 265 18 244 244 324 84 33 269 226 275 274 284 296 62 348 18 343 280
283 289 299 311 323 332 341 348 356 6 14 43 29 13 326 321 335 18 233 143 146 120 88 93 108 83 26 203 277 272 260 240 228 213 119 240 161 48 258 290 315 334 229 69 298 289 278
270 277 286 296 309 319 328 341 353 5 13 26 23 16 356 287 14 347 301 110 111 118 163 286 89 130 221 309 298 279 264 260 237 240 206 182 115 41 267 355 266 222 69 283 244 267 297
262 266 274 283 292 302 311 324 339 350 359 8 18 24 359 289 322 357 7 24 54 28 298 197 134 110 4 352 27 2 343 3 341 271 195 181 122 260 213 214 276 97 334 321 229 305 159
256 260 263 270 279 286 294 305 322 325 335 353 358 15 337 303 299 329 328 21 87 2 13 82 90 35 4 67 62 95 246 276 356 75 63 75 92 140 20 300 275 240 264 302 261 296 283
252 253 257 257 264 271 279 282 304 310 321 334 21 5 333 274 229 5 16 232 7 43 123 90 333 19 278 67 65 199 272 304 96 51 324 346 7 89 276 256 284 294 303 5 43 255 312
250 250 252 251 251 254 262 264 276 281 304 307 265 7 11 292 274 249 206 217 274 35 134 286 54 11 43 72 116 276 98 266 64 271 159 192 139 243 42 277 298 9 2 122 249 300 306
246 246 244 244 245 243 246 248 252 255 280 270 257 303 312 290 268 248 242 232 243 254 227 150 123 218 161 93 66 112 335 8 158 262 340 344 175 205 177 222 237 331 298 302 317 315 319